Linden, NJ

5:22 AM EDT on September 26, 2017 (GMT -0400)
Linden

Weather History for KLDJ - March, 2013

Change the Weather History Date:

Saturday, March 9, 2013

  Actual Average (KEWR) Record (KEWR)
Temperature  
Mean Temperature 46 °F -  
Max Temperature 58 °F 46 °F 82 °F (2016)
Min Temperature 34 °F 30 °F 10 °F (1996)
Degree Days  
Heating Degree Days 19    
Moisture  
Dew Point 23 °F    
Average Humidity 45    
Maximum Humidity 83    
Minimum Humidity 20    
Precipitation  
Precipitation 0.00 in - - ()
Sea Level Pressure  
Sea Level Pressure 30.26 in    
Wind  
Wind Speed 6 mph (North)    
Max Wind Speed 12 mph    
Max Gust Speed 16 mph    
Visibility 10 miles    
Events      
Averages and records for this station are not official NWS values.
T = Trace of Precipitation, MM = Missing Value Source: NWS Daily Summary

Daily Weather History Graph

Daily Weather History Graph

Search for Another Location

Airport or City:

Trip Planner

Search our weather history database for the weather conditions in past years. The results will help you decide how hot, cold, wet, or windy it might be!

Date:

Astronomy

Mar. 09, 2013 Rise Set
Actual Time 6:17 AM EST 5:57 PM EST
Civil Twilight 5:50 AM EST 6:24 PM EST
Nautical Twilight 5:19 AM EST 6:56 PM EST
Astronomical Twilight 4:47 AM EST 7:28 PM EST
Moon 4:40 AM EST (3/9) 3:56 PM EST (3/9)
Length of Visible Light 12h 34m
Length of Day
11h 39m
Waning Crescent, 5% of the Moon is Illuminated
Mar 9
Waning Crescent
Mar 11
New
Mar 19
First Quarter
Mar 27
Full
Apr 3
Last Quarter

Hourly Weather History & Observations

Time (EST) Temp. Windchill Dew Point Humidity Pressure Visibility Wind Dir Wind Speed Gust Speed Precip Events Conditions
12:15 AM 39.4 °F 36.1 °F 28.4 °F 65% 30.21 in 10.0 mi NNW 4.6 mph - N/A   Clear
12:35 AM 39.2 °F 35.0 °F 28.4 °F 65% 30.21 in 10.0 mi North 5.8 mph - N/A   Clear
12:55 AM 38.7 °F 34.3 °F 28.4 °F 67% 30.21 in 10.0 mi NNW 5.8 mph - N/A   Clear
1:15 AM 38.7 °F 32.9 °F 28.4 °F 67% 30.21 in 10.0 mi NNW 8.1 mph - N/A   Clear
1:35 AM 38.5 °F 31.6 °F 28.4 °F 67% 30.21 in 10.0 mi North 10.4 mph 16.1 mph N/A   Clear
2:15 AM 37.6 °F 32.3 °F 28.4 °F 69% 30.21 in 10.0 mi NNW 6.9 mph - N/A   Clear
2:35 AM 37.4 °F 31.4 °F 28.0 °F 69% 30.20 in 10.0 mi North 8.1 mph - N/A   Clear
3:15 AM 36.9 °F 30.7 °F 27.1 °F 68% 30.20 in 10.0 mi North 8.1 mph - N/A   Clear
3:35 AM 36.7 °F 30.5 °F 27.0 °F 68% 30.19 in 10.0 mi North 8.1 mph - N/A   Clear
4:15 AM 36.5 °F 29.7 °F 26.4 °F 67% 30.21 in 10.0 mi NNW 9.2 mph - N/A   Clear
4:35 AM 36.1 °F 30.6 °F 26.4 °F 68% 30.22 in 10.0 mi NNW 6.9 mph - N/A   Clear
5:15 AM 34.3 °F - 25.7 °F 71% 30.23 in 10.0 mi Calm Calm - N/A   Clear
5:35 AM 35.2 °F 31.2 °F 25.7 °F 68% 30.24 in 10.0 mi NNW 4.6 mph - N/A   Clear
5:55 AM 34.5 °F 30.4 °F 25.5 °F 70% 30.24 in 10.0 mi NNW 4.6 mph - N/A   Clear
6:15 AM 34.9 °F 29.9 °F 25.3 °F 68% 30.25 in 10.0 mi North 5.8 mph - N/A   Clear
6:35 AM 35.2 °F 30.3 °F 25.0 °F 66% 30.26 in 10.0 mi North 5.8 mph - N/A   Clear
6:55 AM 35.1 °F 29.3 °F 25.2 °F 67% 30.26 in 10.0 mi NW 6.9 mph - N/A   Clear
7:15 AM 36.0 °F - 24.8 °F 64% 30.27 in 10.0 mi Calm Calm - N/A   Clear
7:35 AM 36.9 °F 30.1 °F 24.8 °F 62% 30.27 in 10.0 mi North 9.2 mph - N/A   Clear
7:55 AM 37.6 °F 32.3 °F 25.0 °F 60% 30.27 in 10.0 mi NNW 6.9 mph - N/A   Clear
8:15 AM 38.8 °F 34.6 °F 25.0 °F 58% 30.27 in 10.0 mi North 5.8 mph - N/A   Clear
8:35 AM 39.9 °F 35.8 °F 24.6 °F 54% 30.27 in 10.0 mi North 5.8 mph - N/A   Clear
8:55 AM 40.8 °F 35.6 °F 25.0 °F 53% 30.28 in 10.0 mi North 8.1 mph - N/A   Clear
9:15 AM 41.7 °F - 24.8 °F 51% 30.29 in 10.0 mi Calm Calm - N/A   Clear
9:35 AM 42.1 °F 37.7 °F 25.2 °F 51% 30.28 in 10.0 mi NNW 6.9 mph - N/A   Clear
9:55 AM 43.9 °F 40.5 °F 24.6 °F 47% 30.28 in 10.0 mi North 5.8 mph - N/A   Clear
10:15 AM 45.1 °F 41.4 °F 24.3 °F 44% 30.28 in 10.0 mi North 6.9 mph - N/A   Clear
10:35 AM 46.0 °F 41.9 °F 23.7 °F 42% 30.28 in 10.0 mi North 8.1 mph - N/A   Clear
10:55 AM 47.7 °F - 23.2 °F 38% 30.28 in 10.0 mi NNW 11.5 mph - N/A   Clear
11:15 AM 48.2 °F - 23.0 °F 37% 30.27 in 10.0 mi NNW 10.4 mph - N/A   Clear
11:35 AM 49.3 °F - 23.7 °F 37% 30.27 in 10.0 mi North 10.4 mph - N/A   Clear
11:55 AM 50.0 °F - 22.6 °F 34% 30.28 in 10.0 mi NNE 11.5 mph 16.1 mph N/A   Clear
12:15 PM 51.6 °F - 23.0 °F 33% 30.27 in 10.0 mi North 10.4 mph 16.1 mph N/A   Clear
12:35 PM 52.3 °F - 23.7 °F 33% 30.26 in 10.0 mi North 11.5 mph - N/A   Clear
12:55 PM 53.1 °F - 23.7 °F 32% 30.25 in 10.0 mi NNW 10.4 mph - N/A   Clear
1:15 PM 54.1 °F - 22.5 °F 29% 30.24 in 10.0 mi North 6.9 mph - N/A   Clear
1:35 PM 55.0 °F - 22.1 °F 28% 30.23 in 10.0 mi NNE 8.1 mph - N/A   Clear
1:55 PM 55.8 °F - 21.6 °F 27% 30.23 in 10.0 mi NE 5.8 mph - N/A   Clear
2:15 PM 56.1 °F - 22.6 °F 27% 30.23 in 10.0 mi NNE 8.1 mph - N/A   Clear
2:35 PM 56.8 °F - 20.3 °F 24% 30.23 in 10.0 mi NNE 6.9 mph - N/A   Clear
2:55 PM 57.2 °F - 21.4 °F 25% 30.23 in 10.0 mi North 9.2 mph - N/A   Clear
3:15 PM 57.4 °F - 20.3 °F 24% 30.23 in 10.0 mi North 4.6 mph - N/A   Clear
3:35 PM 57.7 °F - 22.5 °F 26% 30.24 in 10.0 mi NW 5.8 mph - N/A   Clear
3:55 PM 58.3 °F - 19.8 °F 22% 30.23 in 10.0 mi NNW 6.9 mph - N/A   Clear
4:15 PM 58.1 °F - 19.4 °F 22% 30.23 in 10.0 mi North 8.1 mph - N/A   Clear
4:35 PM 58.3 °F - 17.2 °F 20% 30.23 in 10.0 mi NNE 8.1 mph - N/A   Clear
4:55 PM 58.3 °F - 18.1 °F 21% 30.24 in 10.0 mi North 5.8 mph - N/A   Clear
5:15 PM 57.6 °F - 16.7 °F 20% 30.24 in 10.0 mi North 6.9 mph - N/A   Clear
5:35 PM 57.2 °F - 17.4 °F 21% 30.25 in 10.0 mi North 5.8 mph - N/A   Clear
5:55 PM 56.1 °F - 17.2 °F 22% 30.26 in 10.0 mi North 3.5 mph - N/A   Clear
6:15 PM 54.7 °F - 18.0 °F 24% 30.26 in 10.0 mi North 4.6 mph - N/A   Clear
6:35 PM 54.1 °F - 16.7 °F 23% 30.27 in 10.0 mi North 3.5 mph - N/A   Clear
6:55 PM 53.2 °F - 17.4 °F 24% 30.27 in 10.0 mi North 3.5 mph - N/A   Clear
7:15 PM 53.4 °F - 16.0 °F 23% 30.27 in 10.0 mi North 3.5 mph - N/A   Clear
7:35 PM 49.6 °F - 19.2 °F 30% 30.27 in 10.0 mi NNW 3.5 mph - N/A   Clear
7:55 PM 50.9 °F - 17.6 °F 27% 30.27 in 10.0 mi North 3.5 mph - N/A   Clear
8:15 PM 51.3 °F - 17.1 °F 26% 30.28 in 10.0 mi North 4.6 mph - N/A   Clear
8:35 PM 49.1 °F - 19.0 °F 30% 30.29 in 10.0 mi Calm Calm - N/A   Clear
8:55 PM 48.6 °F - 18.7 °F 31% 30.29 in 10.0 mi Calm Calm - N/A   Clear
9:15 PM 46.6 °F - 19.9 °F 35% 30.29 in 10.0 mi Calm Calm - N/A   Clear
9:35 PM 48.2 °F - 18.1 °F 30% 30.29 in 10.0 mi NE 3.5 mph - N/A   Clear
10:15 PM 47.8 °F - 18.5 °F 31% 30.31 in 10.0 mi NNE 4.6 mph - N/A   Clear
10:35 PM 47.1 °F - 19.2 °F 33% 30.31 in 10.0 mi North 4.6 mph - N/A   Clear
10:55 PM 44.8 °F 42.4 °F 28.9 °F 54% 30.32 in 10.0 mi SE 4.6 mph - N/A   Clear
11:15 PM 41.7 °F 39.8 °F 34.9 °F 77% 30.31 in 10.0 mi SE 3.5 mph - N/A   Clear
11:35 PM 41.0 °F - 35.6 °F 81% 30.32 in 10.0 mi Calm Calm - N/A   Clear
11:55 PM 40.5 °F - 35.6 °F 83% 30.33 in 10.0 mi Calm Calm - N/A   Clear